Weather History for West Palm Beach, FL

Change the Weather History Date:

Monday, October 8, 2012

  Actual Average Record
Temperature  
Mean Temperature 84 °F 80 °F  
Max Temperature 88 °F 86 °F 95 °F (1941)
Min Temperature 79 °F 73 °F 62 °F (1987)
Degree Days  
Heating Degree Days 0 0  
Month to date heating degree days 0 0  
Since 1 July heating degree days 0 0  
Cooling Degree Days 19 15  
Month to date cooling degree days 145 122  
Year to date cooling degree days 3562 3330  
Growing Degree Days 33 (Base 50)    
Moisture  
Dew Point 74 °F    
Average Humidity 72    
Maximum Humidity 85    
Minimum Humidity 59    
Precipitation  
Precipitation T in 0.19 in 1.86 in (1934)
Month to date precipitation 2.34 1.59  
Year to date precipitation 69.74 50.66  
Snow  
Snow 0.00 in - - ()
Month to date snowfall 0.0  
Since 1 July snowfall 0.0  
Since 1 September snowfall 0.0  
Snow Depth 0.00 in    
Sea Level Pressure  
Sea Level Pressure 29.96 in    
Wind  
Wind Speed 6 mph (East)    
Max Wind Speed 10 mph    
Max Gust Speed -    
Visibility 10 miles    
Events Rain    
T = Trace of Precipitation, MM = Missing Value Source: NWS Daily Summary

Daily Weather History Graph

Daily Weather History Graph

Search for Another Location

Airport:

Trip Planner

Search our weather history database for the weather conditions in past years. The results will help you decide how hot, cold, wet, or windy it might be!

Date:

Astronomy

Oct. 08, 2012 Rise Set
Actual Time 7:16 AM EDT 6:58 PM EDT
Civil Twilight 6:53 AM EDT 7:21 PM EDT
Nautical Twilight 6:26 AM EDT 7:48 PM EDT
Astronomical Twilight 5:59 AM EDT 8:15 PM EDT
Moon 12:30 AM EDT (10/8) 2:13 PM EDT (10/8)
Length of Visible Light 12h 28m
Length of Day
11h 42m
Waning Gibbous, 46% of the Moon is Illuminated
Oct 8
Waning Gibbous
Oct 15
New
Oct 21
First Quarter
Oct 29
Full
Nov 6
Last Quarter

Hourly Weather History & Observations

Time (EDT) Temp. Heat Index Dew Point Humidity Pressure Visibility Wind Dir Wind Speed Gust Speed Precip Events Conditions
12:53 AM 81.0 °F 86.2 °F 73.9 °F 79% 29.94 in 10.0 mi ENE 3.5 mph - N/A   Mostly Cloudy
1:53 AM 81.0 °F 86.2 °F 73.9 °F 79% 29.94 in 10.0 mi East 3.5 mph - N/A   Overcast
2:53 AM 81.0 °F 86.2 °F 73.9 °F 79% 29.92 in 10.0 mi East 5.8 mph - N/A   Scattered Clouds
3:53 AM 82.0 °F 87.4 °F 73.0 °F 74% 29.93 in 10.0 mi ENE 4.6 mph - N/A   Scattered Clouds
4:53 AM 81.0 °F 85.8 °F 73.0 °F 77% 29.93 in 10.0 mi ESE 5.8 mph - N/A   Scattered Clouds
5:53 AM 80.1 °F 84.5 °F 73.9 °F 81% 29.95 in 10.0 mi East 5.8 mph - N/A   Scattered Clouds
6:53 AM 80.1 °F 84.5 °F 73.9 °F 81% 29.97 in 10.0 mi East 5.8 mph - N/A   Scattered Clouds
7:53 AM 80.1 °F 85.1 °F 75.0 °F 85% 29.97 in 10.0 mi East 5.8 mph - N/A   Scattered Clouds
8:53 AM 82.0 °F 86.7 °F 72.0 °F 71% 29.99 in 10.0 mi ESE 9.2 mph - N/A   Scattered Clouds
9:53 AM 84.9 °F 91.4 °F 73.0 °F 67% 30.00 in 10.0 mi SE 6.9 mph - N/A   Scattered Clouds
10:53 AM 84.9 °F 92.1 °F 73.9 °F 69% 30.01 in 10.0 mi Variable 5.8 mph - N/A   Mostly Cloudy
11:53 AM 84.9 °F 93.3 °F 75.0 °F 72% 30.01 in 10.0 mi ESE 4.6 mph - N/A   Mostly Cloudy
12:53 PM 87.1 °F 93.6 °F 72.0 °F 61% 29.98 in 10.0 mi ESE 8.1 mph - 0.00 in   Mostly Cloudy
1:53 PM 87.1 °F 95.4 °F 73.9 °F 65% 29.96 in 10.0 mi East 8.1 mph - N/A   Mostly Cloudy
2:53 PM 87.1 °F 96.3 °F 75.0 °F 67% 29.93 in 10.0 mi ESE 10.4 mph - N/A   Mostly Cloudy
3:53 PM 86.0 °F 93.8 °F 73.9 °F 67% 29.93 in 10.0 mi ESE 4.6 mph - N/A   Mostly Cloudy
4:53 PM 86.0 °F 93.0 °F 73.0 °F 65% 29.93 in 10.0 mi East 8.1 mph - N/A   Mostly Cloudy
5:53 PM 84.0 °F 91.9 °F 75.0 °F 74% 29.91 in 10.0 mi East 9.2 mph - N/A   Mostly Cloudy
6:53 PM 84.0 °F 91.9 °F 75.0 °F 74% 29.94 in 10.0 mi East 6.9 mph - N/A   Mostly Cloudy
7:53 PM 84.0 °F 91.2 °F 73.9 °F 72% 29.95 in 10.0 mi NNE 4.6 mph - N/A   Mostly Cloudy
8:53 PM 82.9 °F 89.4 °F 73.9 °F 74% 29.97 in 10.0 mi East 5.8 mph - N/A   Mostly Cloudy
9:53 PM 82.9 °F 89.4 °F 73.9 °F 74% 29.98 in 10.0 mi ESE 3.5 mph - N/A   Mostly Cloudy
10:53 PM 81.0 °F 86.7 °F 75.0 °F 82% 30.00 in 10.0 mi NW 3.5 mph - 0.00 in Rain Light Rain
11:53 PM 81.0 °F 86.7 °F 75.0 °F 82% 30.00 in 10.0 mi Calm Calm - 0.00 in   Mostly Cloudy